STARLINK-6141, 57112

Orbit data source: Space-Track

STARLINK-6141, 57112 is a payload satellite owned by SpaceX/Seattle (US) in LEO that was launched on Fri, 23 Jun 2023 UTC via an FALCON 9 launch vehicle from the Air Force Eastern Test Range (AFETR). Payload-class satellites include a variety of spacecraft equipped with specific instruments for various scientific and technological missions. These include communications satellites like Starlink; space stations such as the ISS; scientific satellites like the Hubble; Earth observation satellites from companies like Planet Labs, Umbra, and HawkEye 360; GPS; miniature CubeSats for education and research; and military/defense satellites.

Loading next visibility...
Identifier
57112, 2023-090M
Orbit
LEO
Country
Flag of USUS
Related business
Manufacturer
SpaceX/Seattle
Mission
Operational Commercial Communications
Bus & Motor
STARLINK, Unknown motor
Mass
305 kg wet, ~290 kg dry
Launch date (UTC)
2023-06-23 (3 years ago)
Launch vehicle
FALCON 9
Launch site
Air Force Eastern Test Range (AFETR)
Object type
Payload
Rocket body
Debris
Shape & HBR
Box + 1 Pan, 10.1 m
Radar Cross Section
11.087 m², Large (>1 m²)

Expand to show TLE details & history
Last TLE update: 2 days ago

TLE from 2 days ago
0 STARLINK-6141
1 57112U 23090M   26171.03504592  .00000413  00000-0  24532-4 0  9993
2 57112  43.0069  63.6616 0001625 265.5474  94.5192 15.27576128165988
Epoch: 2026-06-20T00:50Z
TLE epoch observation values (Epoch: 2026-06-20T00:50:27.967Z)
Latitude
-0.00003°
Longitude
142.78959°
Altitude
482.925 km
Speed
7.626 km/s
True Right ascension
04h 14m 38s
True Declination
0° 00' 00"
Sunlit
Object was in daylight at epoch
Visualization orbit readout
Latitude
Unknown
Longitude
Unknown
Altitude
Unknown
Speed
Unknown
Apparent Right ascension
Unknown
Apparent Declination
Unknown
Sunlit
N/A
Visualization observer readout
Local Sidereal Time
21:26:52
Azimuth
Unknown
Elevation
Unknown
Doppler factor
Unknown
Orbital elements
Apogee altitude
486.12 km
Perigee altitude
483.889 km
Semi-major axis
6,863.142 km
Eccentricity
0.00016
Inclination
43.0069°
RAAN
63.6616°
Arg. of periapsis
265.5474°
True anomaly
94.53776°
Mean anomaly
94.5192°
Eccentric anomaly
94.52848°
Mean motion
3.81732 °/min
Orbital period
94.31 mins
BSTAR
0.000024532
Loading maneuver chart data...
Computing Atmospheric mass density...
Loading historical data...
Loading historical data...
Loading historical data...
Loading historical data...
Loading historical data...
Loading historical data...
Loading historical data...

Documentation

Showing up to 5 results
|